Station CMTI2 - 9087044 - Calumet Harbor, IL Image indicating link to RSS feed of recent meteorological observations for station CMTI2


Conditions at CMTI2 as of
(7:30 pm CDT on 05/27/2024)
0030 GMT on 05/28/2024:
     

Click on the graph icon in the table below to see a time series plot of the last five days of that observation.

5-day plot - Wind Direction Wind Direction (WDIR): N ( 350 deg true )
5-day plot - Wind Speed Wind Speed (WSPD): 8.0 kts
5-day plot - Wind Gust Wind Gust (GST): 15.9 kts
5-day plot - Atmospheric Pressure Atmospheric Pressure (PRES):29.78 in
5-day plot - Air Temperature Air Temperature (ATMP): 64.6 °F
5-day plot - Dew Point Dew Point (DEWP): 54.9 °F
5-day plot - Wind Speed at 10 Meters Wind Speed at 10 meters (WSPD10M): 7.8 kts
5-day plot - Wind Speed at 20 Meters Wind Speed at 20 meters (WSPD20M): 9.7 kts
5-day plot -  Wind Speed, Wind Gust and Atmospheric Pressure Combined plot of Wind Speed, Gust, and Air Pressure
NOS Water Level Observation Network Water Level
Previous observations
TIME
(CDT)
5-day plot - Wind Direction
WDIR
 
5-day plot - Wind Speed
WSPD
kts
5-day plot - Wind Gust
GST
kts
5-day plot - Wave Height
WVHT
ft
5-day plot - Dominant Wave Period
DPD
sec
5-day plot - Average Wave Period
APD
sec
5-day plot - Mean Wave Direction
MWD
 
5-day plot - Atmospheric Pressure
PRES
in
5-day plot - Pressure Tendency
PTDY
in
5-day plot - Air Temperature
ATMP
°F
5-day plot - Water Temperature
WTMP
°F
5-day plot - Dew Point
DEWP
°F
5-day plot - Salinity
SAL
psu
5-day plot - Visibility
VIS
nmi
5-day plot - Tide (above MLLW)
TIDE
ft
2024-05-27 07:24 pm N 4.1 6.0----29.78- 65.3- 55.0---
2024-05-27 07:18 pm N 4.1 6.0----29.77- 65.7- 54.9---
2024-05-27 07:12 pm N 2.9 5.1----29.77- 66.2- 55.0---
2024-05-27 07:06 pm N 4.1 7.0----29.76- 66.4- 54.9---
2024-05-27 07:00 pm N 5.1 6.0----29.76+0.04 66.9- 54.7---
2024-05-27 06:54 pmNNE 5.1 6.0----29.75- 67.3- 54.3---
2024-05-27 06:48 pmNNE 2.9 4.1----29.75-------
2024-05-27 06:42 pm N 2.9 6.0----29.75-------
2024-05-27 06:36 pm N 4.1 5.1----29.75-------
2024-05-27 06:30 pmWNW 6.0 9.9----29.75- 70.7- 55.6---
2024-05-27 06:24 pmNNW 2.9 4.1----29.75- 70.0- 57.6---
2024-05-27 06:18 pmWNW 2.9 6.0----29.75- 69.8- 57.7---
2024-05-27 06:12 pm NW 2.9 5.1----29.75- 68.9- 57.7---
2024-05-27 06:06 pmWNW 4.1 5.1----29.75- 68.2- 57.6---
2024-05-27 06:00 pmWNW 4.1 5.1----29.75+0.03 67.6- 57.9---
2024-05-27 05:54 pm NW 1.9 2.9----29.75- 67.5- 57.7---
2024-05-27 05:48 pmWNW 1.9 2.9----29.74- 67.5- 57.6---
2024-05-27 05:42 pm NW 2.9 5.1----29.74- 67.3- 57.6---
2024-05-27 05:36 pm NW 2.9 5.1----29.74- 66.9- 57.6---
2024-05-27 05:30 pmNNW 4.1 6.0----29.74- 66.7- 57.9---
2024-05-27 05:24 pmNNW 5.1 12.0----29.74- 66.2- 57.6---
2024-05-27 05:18 pmNNW 9.9 15.9----29.74-------
2024-05-27 05:12 pm N 6.0 8.0----29.73- 67.5- 55.8---
2024-05-27 05:06 pm NW 2.9 5.1----29.73- 70.3- 56.8---
2024-05-27 05:00 pm--------- 69.3- 56.7---
2024-05-27 04:54 pm--------- 68.2- 56.1---
2024-05-27 04:48 pm N 4.1 5.1----29.73- 67.8- 55.8---
2024-05-27 04:42 pmNNW 4.1 6.0----29.73- 67.6- 55.6---
2024-05-27 04:36 pm N 5.1 7.0----29.73- 67.6- 55.4---
2024-05-27 04:30 pm N 5.1 7.0----29.73-------
2024-05-27 04:24 pm N 5.1 7.0----29.73-------
2024-05-27 04:18 pm N 6.0 8.0----29.73- 68.4- 54.5---
2024-05-27 04:12 pmNNW 8.0 8.9----29.73- 69.4- 54.5---
2024-05-27 04:06 pmNNW 7.0 9.9----29.72- 70.2- 54.3---
2024-05-27 04:00 pmNNW 7.0 11.1----29.72+0.02 70.9- 53.6---
2024-05-27 03:54 pmWNW 4.1 8.9----29.72- 73.4- 54.9---
2024-05-27 03:48 pmWNW 5.1 8.9----29.72- 72.7- 55.2---
2024-05-27 03:42 pmWNW 6.0 9.9----29.72- 72.0- 54.3---
2024-05-27 03:36 pm W 4.1 12.0----29.72- 72.0- 55.2---
2024-05-27 03:30 pm-------29.72- 70.9- 54.3---
2024-05-27 03:24 pm-------29.72- 70.9- 54.3---
2024-05-27 03:18 pmWNW 9.9 15.0----29.72- 70.3- 53.4---
2024-05-27 03:12 pm W 7.0 14.0----29.72- 70.5- 54.1---
2024-05-27 03:06 pm NW 11.1 15.9----29.72- 70.5- 53.8---
2024-05-27 03:00 pm W 5.1 11.1----29.72+0.03 70.7- 54.9---
2024-05-27 02:54 pmWNW 4.1 14.0----29.71- 70.3- 54.7---
2024-05-27 02:48 pm W 6.0 13.0------ 70.3- 54.5---
2024-05-27 02:42 pmWNW 4.1 9.9------ 70.2- 54.5---
2024-05-27 02:36 pmWNW 8.9 12.0------ 70.3- 54.1---
2024-05-27 02:30 pmWNW 5.1 9.9----29.71- 70.9- 55.4---
2024-05-27 02:24 pmWNW 5.1 9.9----29.71- 69.8- 54.9---
2024-05-27 02:18 pmWNW 6.0 9.9----29.71- 69.1- 54.1---
2024-05-27 02:12 pm W 8.0 14.0----29.70- 68.9- 54.0---
2024-05-27 02:06 pm W 4.1 11.1----29.70- 69.4- 54.9---
2024-05-27 02:00 pmWNW 6.0 13.0----29.70+0.04 68.4- 53.8---
2024-05-27 01:54 pmWNW 7.0 14.0----29.70- 68.7- 54.1---
2024-05-27 01:48 pmWNW 7.0 14.0----29.70- 68.5- 54.0---
2024-05-27 01:42 pmWNW 11.1 17.1----29.70- 67.6- 53.2---
2024-05-27 01:36 pmWNW 8.9 14.0----29.70- 68.2- 54.0---
2024-05-27 01:30 pmWNW 11.1 14.0----29.70- 67.3- 53.6---
2024-05-27 01:24 pmWNW 7.0 9.9----29.70- 67.5- 54.5---
2024-05-27 01:18 pmWNW 5.1 12.0----29.70-------
2024-05-27 01:12 pmWNW 11.1 19.0----29.70- 66.4- 53.2---
2024-05-27 01:06 pm W 4.1 15.0----29.70- 66.9- 54.1---
2024-05-27 01:00 pm W 7.0 14.0----29.70+0.08 66.7- 54.0---
2024-05-27 12:54 pm W 8.9 17.1----29.70- 66.7- 54.1---
2024-05-27 12:48 pm W 5.1 13.0----29.70-------
2024-05-27 12:42 pm W 5.1 12.0----29.70-------
2024-05-27 12:36 pm W 6.0 13.0----29.70-------
2024-05-27 12:30 pmWSW 5.1 12.0----29.70- 64.9- 54.3---
2024-05-27 12:24 pmWSW 4.1 9.9----29.70- 64.9- 54.7---
2024-05-27 12:18 pmWSW 5.1 13.0----29.69- 64.8- 54.5---
2024-05-27 12:12 pm W 7.0 14.0----29.69- 64.2- 54.1---
2024-05-27 12:06 pm W 6.0 13.0----29.69- 64.4- 54.7---
2024-05-27 12:00 pm W 5.1 9.9----29.69+0.10 64.0- 54.9---
2024-05-27 11:54 am W 7.0 11.1----29.69- 63.3- 54.1---
2024-05-27 11:48 amWSW 5.1 11.1----29.69- 63.3- 54.3---
2024-05-27 11:42 amWNW 5.1 11.1----29.68- 63.5- 54.7---
2024-05-27 11:36 am W 5.1 8.9----29.68- 63.0- 54.5---
2024-05-27 11:30 amWSW 4.1 9.9----29.67- 63.0- 54.7---
2024-05-27 11:24 amWSW 2.9 11.1----29.67- 62.4- 54.3---
2024-05-27 11:18 am W 4.1 9.9----29.67-------
2024-05-27 11:12 am W 4.1 14.0----29.67- 61.9- 54.0---
2024-05-27 11:06 am W 5.1 12.0----29.67- 61.7- 54.0---
2024-05-27 11:00 am W 4.1 15.0----29.66+0.09 61.9- 54.3---
2024-05-27 10:54 am W 5.1 12.0----29.66- 61.3- 53.8---
2024-05-27 10:48 am W 8.0 13.0----29.66- 61.2- 53.4---
2024-05-27 10:42 amWNW 8.0 15.0----29.65- 61.3- 53.6---
2024-05-27 10:36 am W 7.0 15.9----29.65- 61.3- 53.8---
2024-05-27 10:30 am W 8.9 15.9----29.64- 61.2- 53.6---
2024-05-27 10:24 am W 4.1 8.0----29.64- 61.7- 54.5---
2024-05-27 10:18 am W 5.1 15.9----29.63- 61.3- 54.1---
2024-05-27 10:12 am W 6.0 12.0----29.62- 61.5- 54.5---
2024-05-27 10:06 am W 6.0 14.0----29.62- 61.2- 54.5---
2024-05-27 10:00 am W 5.1 12.0----29.62+0.06 60.8- 54.3---
2024-05-27 09:54 am W 5.1 11.1----29.62- 60.8- 54.3---
2024-05-27 09:48 am W 8.0 12.0----29.62-------
2024-05-27 09:42 am W 5.1 9.9----29.61-------
2024-05-27 09:36 am W 6.0 12.0----29.61-------
2024-05-27 09:30 am W 4.1 12.0----29.60- 60.1- 54.3---
2024-05-27 09:24 am W 4.1 11.1----29.60- 60.3- 54.5---
2024-05-27 09:18 am W 8.0 12.0----29.60- 60.4- 54.7---
2024-05-27 09:12 amWSW 4.1 14.0----29.59- 60.3- 54.5---
2024-05-27 09:06 am W 6.0 15.0----29.59- 60.3- 54.5---
2024-05-27 09:00 am W 7.0 13.0----29.59+0.04 60.1- 54.5---
2024-05-27 08:54 am W 5.1 13.0----29.59- 60.1- 54.5---
2024-05-27 08:48 am W 5.1 12.0----29.59- 60.1- 54.5---
2024-05-27 08:42 am W 2.9 8.9----29.58- 60.1- 54.7---
2024-05-27 08:36 am W 5.1 8.9----29.58- 60.1- 55.0---
2024-05-27 08:30 am W 4.1 8.9----29.58- 59.9- 55.0---
2024-05-27 08:24 am W 2.9 7.0----29.57- 59.9- 55.4---
2024-05-27 08:18 am W 4.1 8.0----29.57-------
2024-05-27 08:12 amWSW 5.1 9.9----29.57- 59.5- 55.6---
2024-05-27 08:06 amWSW 5.1 9.9----29.57- 59.2- 55.4---
2024-05-27 08:00 am W 5.1 13.0----29.57+0.06 58.8- 55.0---
2024-05-27 07:54 am W 7.0 13.0----29.57- 58.8- 54.9---
2024-05-27 07:48 am W 5.1 8.9----29.57- 59.0- 54.7---
2024-05-27 07:42 am W 5.1 9.9----29.57- 59.4- 55.0---
2024-05-27 07:36 am W 5.1 12.0----29.57- 59.4- 54.9---
2024-05-27 07:30 am W 5.1 11.1----29.57- 59.5- 55.0---
2024-05-27 07:24 am W 5.1 12.0----29.57- 59.5- 55.0---
2024-05-27 07:18 am W 4.1 8.9----29.57- 59.5- 55.2---
2024-05-27 07:12 am W 5.1 15.9----29.56- 59.5- 55.2---
2024-05-27 07:06 am W 7.0 14.0----29.56- 59.4- 55.2---
2024-05-27 07:00 am W 5.1 11.1----29.55+0.06 59.4- 55.6---
2024-05-27 06:54 am W 5.1 12.0----29.55- 59.2- 55.6---
2024-05-27 06:48 am W 2.9 8.9----29.55- 59.0- 55.6---
2024-05-27 06:42 am W 4.1 7.0----29.55- 59.0- 55.6---
2024-05-27 06:36 am W 5.1 8.9----29.55- 59.0- 55.6---
2024-05-27 06:30 am W 5.1 11.1----29.55- 59.2- 55.8---
2024-05-27 06:24 am W 5.1 12.0----29.55- 59.2- 55.8---
2024-05-27 06:18 am W 2.9 8.9----29.54- 59.0- 55.8---
2024-05-27 06:12 am W 7.0 13.0----29.54- 59.0- 55.6---
2024-05-27 06:06 am W 5.1 12.0----29.54- 59.0- 55.8---
2024-05-27 06:00 amWSW 5.1 12.0----29.54+0.03 59.0- 55.8---
2024-05-27 05:54 amWSW 4.1 8.9----29.54- 59.0- 55.8---
2024-05-27 05:48 amWSW 4.1 14.0----29.54- 58.8- 55.6---
2024-05-27 05:42 am SW 6.0 9.9----29.53- 58.8- 55.6---
2024-05-27 05:36 amWSW 7.0 13.0----29.53- 58.8- 55.6---
2024-05-27 05:30 amWSW 5.1 9.9----29.53- 58.6- 55.6---
2024-05-27 05:24 amWSW 5.1 8.9----29.52- 58.6- 55.4---
2024-05-27 05:18 am SW 6.0 11.1----29.52- 58.5- 55.2---
2024-05-27 05:12 am SW 8.0 11.1----29.52- 58.5- 55.0---
2024-05-27 05:06 am SW 6.0 9.9----29.52- 58.5- 54.9---
2024-05-27 05:00 amWSW 4.1 8.0----29.52+0.00 58.5- 54.9---
2024-05-27 04:54 am SW 5.1 8.9----29.51- 58.5- 54.7---
2024-05-27 04:48 am SW 6.0 11.1----29.51- 58.6- 54.7---
2024-05-27 04:42 amWSW 5.1 9.9----29.50- 58.6- 54.5---
2024-05-27 04:36 am SW 6.0 9.9----29.51- 58.8- 54.5---
2024-05-27 04:30 am SW 6.0 9.9----29.51- 59.0- 54.5---
2024-05-27 04:24 am SW 5.1 9.9----29.50- 59.0- 54.3---
2024-05-27 04:18 am SW 6.0 11.1----29.50-------
2024-05-27 04:12 amWSW 5.1 9.9----29.50- 58.8- 54.1---
2024-05-27 04:06 am SW 4.1 12.0----29.50- 58.8- 54.0---
2024-05-27 04:00 amWSW 6.0 9.9----29.50-0.02 59.0- 54.0---
2024-05-27 03:54 amWSW 5.1 9.9----29.50- 59.0- 54.0---
2024-05-27 03:48 am SW 6.0 12.0----29.50- 59.0- 53.8---
2024-05-27 03:42 am SW 5.1 9.9----29.50- 59.0- 54.0---
2024-05-27 03:36 am SW 5.1 8.9----29.50- 59.0- 54.0---
2024-05-27 03:30 am SW 4.1 8.9----29.51- 59.2- 54.0---
2024-05-27 03:24 am SW 6.0 8.0----29.51- 59.2- 53.8---
2024-05-27 03:18 am SW 6.0 8.9----29.51- 59.2- 53.8---
2024-05-27 03:12 amWSW 4.1 7.0----29.51- 59.2- 53.8---
2024-05-27 03:06 amWSW 4.1 8.0----29.51- 59.2- 53.8---
2024-05-27 03:00 amWSW 6.0 8.9----29.51+0.01 59.2-----
2024-05-27 02:54 amSSW 5.1 8.9----29.51- 59.2-----
2024-05-27 02:48 amWSW 4.1 13.0----29.51- 59.2- 53.8---
2024-05-27 02:42 am SW 2.9 14.0----29.51- 59.2- 53.8---
2024-05-27 02:36 am SW 4.1 8.0----29.51- 59.0- 53.8---
2024-05-27 02:30 am SW 4.1 11.1----29.51- 59.0- 53.8---
2024-05-27 02:24 amWSW 5.1 9.9----29.51- 59.0- 54.0---
2024-05-27 02:18 am W 2.9 11.1----29.51-------
2024-05-27 02:12 am W 2.9 8.9----29.51- 59.0- 54.1---
2024-05-27 02:06 amWSW 5.1 12.0----29.51- 59.0- 54.1---
2024-05-27 02:00 amWSW 5.1 11.1----29.51+0.02 59.0- 54.1---
2024-05-27 01:54 amWSW 5.1 11.1----29.52- 59.0- 54.3---
2024-05-27 01:48 amWSW 4.1 8.0----29.52- 59.0- 54.5---
2024-05-27 01:42 am SW 6.0 11.1----29.52- 59.0- 54.3---
2024-05-27 01:36 amWSW 5.1 7.0----29.52- 59.0- 54.3---
2024-05-27 01:30 am SW 4.1 9.9----29.52- 59.0- 54.3---
2024-05-27 01:24 amWSW 1.9 7.0----29.52- 58.8- 54.3---
2024-05-27 01:18 amWSW 4.1 8.0----29.52- 58.8- 54.3---
2024-05-27 01:12 amWSW 2.9 8.9----29.52- 58.8- 54.3---
2024-05-27 01:06 amWSW 4.1 11.1----29.52- 59.2- 54.3---
2024-05-27 01:00 amWSW 1.9 5.1----29.52+0.02 59.0- 54.3---
2024-05-27 12:54 am W 1.9 8.9----29.52- 59.2- 54.5---
2024-05-27 12:48 am W 6.0 11.1----29.52- 59.5- 54.9---
2024-05-27 12:42 am W 5.1 12.0----29.52- 59.9- 55.4---
2024-05-27 12:36 am W 2.9 7.0----29.52- 60.3- 55.9---
2024-05-27 12:30 am W 2.9 6.0----29.52- 60.4- 56.1---
2024-05-27 12:24 am W 1.9 11.1----29.51- 60.8- 56.3---
2024-05-27 12:18 am W 2.9 6.0----29.51- 61.2- 56.5---
2024-05-27 12:12 am W 2.9 7.0----29.51- 61.5- 56.7---
2024-05-27 12:06 amWSW 2.9 6.0----29.50- 61.9- 57.0---
2024-05-27 12:00 am W 2.9 6.0----29.50+0.00 62.2- 57.2---
2024-05-26 11:54 pm W 2.9 7.0----29.50- 62.4- 57.2---
2024-05-26 11:48 pm W 4.1 8.0----29.50- 62.8- 57.4---
2024-05-26 11:42 pm W 2.9 8.0----29.50- 63.1- 57.7---
2024-05-26 11:36 pmWSW 2.9 7.0----29.50- 63.5- 57.9---
2024-05-26 11:30 pmWSW 2.9 6.0----29.50- 63.7- 57.9---
2024-05-26 11:24 pmWSW 2.9 6.0----29.50- 63.9- 58.1---
2024-05-26 11:18 pmWSW 1.9 5.1----29.50- 64.2- 58.3---
2024-05-26 11:12 pm W 1.9 5.1----29.50- 64.6- 58.8---
2024-05-26 11:06 pm W 1.9 4.1----29.50- 64.6- 59.2---
2024-05-26 11:00 pm W 2.9 5.1----29.49+0.01 64.6- 59.7---
2024-05-26 10:54 pm W 4.1 8.9----29.49- 64.9- 60.6---
2024-05-26 10:48 pm-------29.48-------
2024-05-26 10:42 pm-------29.48-------
2024-05-26 10:36 pm-------29.48-------
2024-05-26 10:30 pm NW 1.9 1.9----29.49- 64.9- 61.0---
2024-05-26 10:24 pmWNW 1.9 2.9----29.49- 64.9- 60.6---
2024-05-26 10:18 pmWNW 1.9 2.9----29.49- 65.5- 60.4---
2024-05-26 10:12 pmWNW 1.9 1.9----29.50- 66.4- 60.6---
2024-05-26 10:06 pm- 0.0 2.9----29.50- 66.6- 60.6---
2024-05-26 10:00 pm NW 1.0 2.9----29.50+0.00 66.7- 60.8---
2024-05-26 09:54 pmWNW 1.9 4.1----29.49- 67.1- 61.0---
2024-05-26 09:48 pmWNW 2.9 5.1----29.49- 67.5- 61.2---
2024-05-26 09:42 pm W 4.1 7.0----29.50- 67.6- 61.2---
2024-05-26 09:36 pm W 1.9 6.0----29.51- 67.6- 61.3---
2024-05-26 09:18 pm W 2.9 7.0----29.51-------
2024-05-26 09:12 pm W 4.1 12.0----29.50-------
2024-05-26 09:06 pm W 1.9 6.0----29.50-------
2024-05-26 09:00 pmWSW 4.1 9.9----29.50+0.00------
2024-05-26 08:54 pmWSW 2.9 8.9----29.50-------
2024-05-26 08:48 pm-------29.49-------
2024-05-26 08:42 pm S 5.1 7.0----29.47- 72.3- 66.7---
2024-05-26 08:36 pm S 5.1 7.0----29.47- 72.3- 66.7---
2024-05-26 08:30 pm S 6.0 8.9----29.48- 72.7- 66.9---
2024-05-26 08:24 pm S 5.1 7.0----29.47- 72.3- 66.6---
2024-05-26 08:18 pm S 6.0 9.9----29.48-------
2024-05-26 08:12 pm S 6.0 9.9----29.49-------
2024-05-26 08:06 pmSSE 7.0 9.9----29.48-------
2024-05-26 08:00 pm S 8.0 12.0----29.48-0.06------
2024-05-26 07:54 pmSSE 8.0 12.0----29.49-------